owner,sensor,date,latitude,longitude,vertical_datum,sea_water_practical_salinity,qcFlag 
TABS,ioos:station:wmo:42049:1,2010-12-01T00:00:00Z,28.3507,-96.0058,2.0,32.2698,11111222 
TABS,ioos:station:wmo:42049:1,2010-12-01T00:30:00Z,28.3507,-96.0058,2.0,32.3871,11111222 
TABS,ioos:station:wmo:42049:1,2010-12-01T01:00:00Z,28.3507,-96.0058,2.0,32.3855,11111222 
TABS,ioos:station:wmo:42049:1,2010-12-01T01:30:00Z,28.3507,-96.0058,2.0,32.3561,11111222 
TABS,ioos:station:wmo:42049:1,2010-12-01T02:00:00Z,28.3507,-96.0058,2.0,32.4084,11111222 
TABS,ioos:station:wmo:42049:1,2010-12-01T02:30:00Z,28.3507,-96.0058,2.0,32.2611,11111222 
TABS,ioos:station:wmo:42049:1,2010-12-01T03:00:00Z,28.3507,-96.0058,2.0,32.3024,11111222 
TABS,ioos:station:wmo:42049:1,2010-12-01T03:30:00Z,28.3507,-96.0058,2.0,32.4067,11111222 
TABS,ioos:station:wmo:42049:1,2010-12-01T04:00:00Z,28.3507,-96.0058,2.0,32.4403,11111222 
TABS,ioos:station:wmo:42049:1,2010-12-01T04:30:00Z,28.3507,-96.0058,2.0,32.473,11111222 
TABS,ioos:station:wmo:42049:1,2010-12-01T05:00:00Z,28.3507,-96.0058,2.0,32.3012,11111222 
TABS,ioos:station:wmo:42049:1,2010-12-01T05:30:00Z,28.3507,-96.0058,2.0,32.293,11111222 
TABS,ioos:station:wmo:42049:1,2010-12-01T06:00:00Z,28.3507,-96.0058,2.0,32.307,11111222 
TABS,ioos:station:wmo:42049:1,2010-12-01T06:30:00Z,28.3507,-96.0058,2.0,32.2849,11111222 
TABS,ioos:station:wmo:42049:1,2010-12-01T07:00:00Z,28.3507,-96.0058,2.0,32.249,11111222 
TABS,ioos:station:wmo:42049:1,2010-12-01T07:30:00Z,28.3507,-96.0058,2.0,32.2346,11111222 
TABS,ioos:station:wmo:42049:1,2010-12-01T08:00:00Z,28.3507,-96.0058,2.0,32.2533,11111222 
TABS,ioos:station:wmo:42049:1,2010-12-01T08:30:00Z,28.3507,-96.0058,2.0,32.2659,11111222 
TABS,ioos:station:wmo:42049:1,2010-12-01T09:00:00Z,28.3507,-96.0058,2.0,32.2929,11111222 
TABS,ioos:station:wmo:42049:1,2010-12-01T09:30:00Z,28.3507,-96.0058,2.0,32.3193,11111222 
TABS,ioos:station:wmo:42049:1,2010-12-01T10:00:00Z,28.3507,-96.0058,2.0,32.353,11111222 
TABS,ioos:station:wmo:42049:1,2010-12-01T10:30:00Z,28.3507,-96.0058,2.0,32.3496,11111222 
TABS,ioos:station:wmo:42049:1,2010-12-01T11:00:00Z,28.3507,-96.0058,2.0,32.3387,11111222 
TABS,ioos:station:wmo:42049:1,2010-12-01T11:30:00Z,28.3507,-96.0058,2.0,32.3494,11111222 
TABS,ioos:station:wmo:42049:1,2010-12-01T12:00:00Z,28.3507,-96.0058,2.0,32.3347,11111222 
TABS,ioos:station:wmo:42049:1,2010-12-01T12:30:00Z,28.3507,-96.0058,2.0,32.3219,11111222 
TABS,ioos:station:wmo:42049:1,2010-12-01T13:00:00Z,28.3507,-96.0058,2.0,32.3278,11111222 
TABS,ioos:station:wmo:42049:1,2010-12-01T13:30:00Z,28.3507,-96.0058,2.0,32.3286,11111222 
TABS,ioos:station:wmo:42049:1,2010-12-01T14:00:00Z,28.3507,-96.0058,2.0,32.3044,11111222 
TABS,ioos:station:wmo:42049:1,2010-12-01T14:30:00Z,28.3507,-96.0058,2.0,32.2807,11111222 
TABS,ioos:station:wmo:42049:1,2010-12-01T15:00:00Z,28.3507,-96.0058,2.0,32.27,11111222 
TABS,ioos:station:wmo:42049:1,2010-12-01T15:30:00Z,28.3507,-96.0058,2.0,32.2658,11111222 
TABS,ioos:station:wmo:42049:1,2010-12-01T16:00:00Z,28.3507,-96.0058,2.0,32.2699,11111222 
TABS,ioos:station:wmo:42049:1,2010-12-01T16:30:00Z,28.3507,-96.0058,2.0,32.2668,11111222 
TABS,ioos:station:wmo:42049:1,2010-12-01T17:00:00Z,28.3507,-96.0058,2.0,32.2533,11111222 
TABS,ioos:station:wmo:42049:1,2010-12-01T17:30:00Z,28.3507,-96.0058,2.0,32.2373,11111222 
TABS,ioos:station:wmo:42049:1,2010-12-01T18:00:00Z,28.3507,-96.0058,2.0,32.2426,11111222 
TABS,ioos:station:wmo:42049:1,2010-12-01T18:30:00Z,28.3507,-96.0058,2.0,32.2267,11111222 
TABS,ioos:station:wmo:42049:1,2010-12-01T19:00:00Z,28.3507,-96.0058,2.0,32.2317,11111222 
TABS,ioos:station:wmo:42049:1,2010-12-01T19:30:00Z,28.3507,-96.0058,2.0,32.2245,11111222 
TABS,ioos:station:wmo:42049:1,2010-12-01T20:00:00Z,28.3507,-96.0058,2.0,32.2275,11111222 
TABS,ioos:station:wmo:42049:1,2010-12-01T20:30:00Z,28.3507,-96.0058,2.0,32.1709,11111222 
TABS,ioos:station:wmo:42049:1,2010-12-01T21:00:00Z,28.3507,-96.0058,2.0,32.1715,11111222 
TABS,ioos:station:wmo:42049:1,2010-12-01T21:30:00Z,28.3507,-96.0058,2.0,32.1544,11111222 
TABS,ioos:station:wmo:42049:1,2010-12-01T22:00:00Z,28.3507,-96.0058,2.0,32.1441,11111222 
TABS,ioos:station:wmo:42049:1,2010-12-01T22:30:00Z,28.3507,-96.0058,2.0,32.1446,11111222 
TABS,ioos:station:wmo:42049:1,2010-12-01T23:00:00Z,28.3507,-96.0058,2.0,32.1383,11111222 
TABS,ioos:station:wmo:42049:1,2010-12-01T23:30:00Z,28.3507,-96.0058,2.0,32.1406,11111222 
TABS,ioos:station:wmo:42049:1,2010-12-02T00:00:00Z,28.3507,-96.0058,2.0,32.1139,11111222 
TABS,ioos:station:wmo:42049:1,2010-12-02T00:30:00Z,28.3507,-96.0058,2.0,32.0122,11111222 
TABS,ioos:station:wmo:42049:1,2010-12-02T01:00:00Z,28.3507,-96.0058,2.0,31.9587,11111222 
TABS,ioos:station:wmo:42049:1,2010-12-02T01:30:00Z,28.3507,-96.0058,2.0,31.9464,11111222 
TABS,ioos:station:wmo:42049:1,2010-12-02T02:00:00Z,28.3507,-96.0058,2.0,31.7759,11111222 
TABS,ioos:station:wmo:42049:1,2010-12-02T02:30:00Z,28.3507,-96.0058,2.0,31.8436,11111222 
TABS,ioos:station:wmo:42049:1,2010-12-02T03:00:00Z,28.3507,-96.0058,2.0,31.8742,11111222 
TABS,ioos:station:wmo:42049:1,2010-12-02T03:30:00Z,28.3507,-96.0058,2.0,31.9098,11111222 
TABS,ioos:station:wmo:42049:1,2010-12-02T04:00:00Z,28.3507,-96.0058,2.0,31.9426,11111222 
TABS,ioos:station:wmo:42049:1,2010-12-02T04:30:00Z,28.3507,-96.0058,2.0,32.1083,11111222 
TABS,ioos:station:wmo:42049:1,2010-12-02T05:00:00Z,28.3507,-96.0058,2.0,32.1142,11111222 
TABS,ioos:station:wmo:42049:1,2010-12-02T05:30:00Z,28.3507,-96.0058,2.0,32.1138,11111222 
TABS,ioos:station:wmo:42049:1,2010-12-02T06:00:00Z,28.3507,-96.0058,2.0,32.1137,11111222 
TABS,ioos:station:wmo:42049:1,2010-12-02T06:30:00Z,28.3507,-96.0058,2.0,32.108,11111222 
TABS,ioos:station:wmo:42049:1,2010-12-02T07:00:00Z,28.3507,-96.0058,2.0,32.1094,11111222 
TABS,ioos:station:wmo:42049:1,2010-12-02T07:30:00Z,28.3507,-96.0058,2.0,32.1094,11111222 
TABS,ioos:station:wmo:42049:1,2010-12-02T08:00:00Z,28.3507,-96.0058,2.0,32.1042,11111222 
TABS,ioos:station:wmo:42049:1,2010-12-02T08:30:00Z,28.3507,-96.0058,2.0,32.102,11111222 
TABS,ioos:station:wmo:42049:1,2010-12-02T09:00:00Z,28.3507,-96.0058,2.0,32.0978,11111222 
TABS,ioos:station:wmo:42049:1,2010-12-02T09:30:00Z,28.3507,-96.0058,2.0,32.0863,11111222 
TABS,ioos:station:wmo:42049:1,2010-12-02T10:00:00Z,28.3507,-96.0058,2.0,32.0716,11111222 
TABS,ioos:station:wmo:42049:1,2010-12-02T10:30:00Z,28.3507,-96.0058,2.0,32.0649,11111222 
TABS,ioos:station:wmo:42049:1,2010-12-02T11:00:00Z,28.3507,-96.0058,2.0,32.0555,11111222 
TABS,ioos:station:wmo:42049:1,2010-12-02T11:30:00Z,28.3507,-96.0058,2.0,32.0439,11111222 
TABS,ioos:station:wmo:42049:1,2010-12-02T12:00:00Z,28.3507,-96.0058,2.0,32.0378,11111222 
TABS,ioos:station:wmo:42049:1,2010-12-02T12:30:00Z,28.3507,-96.0058,2.0,32.0019,11111222 
TABS,ioos:station:wmo:42049:1,2010-12-02T13:00:00Z,28.3507,-96.0058,2.0,32.0051,11111222 
TABS,ioos:station:wmo:42049:1,2010-12-02T13:30:00Z,28.3507,-96.0058,2.0,32.0067,11111222 
TABS,ioos:station:wmo:42049:1,2010-12-02T14:00:00Z,28.3507,-96.0058,2.0,31.9934,11111222 
TABS,ioos:station:wmo:42049:1,2010-12-02T14:30:00Z,28.3507,-96.0058,2.0,31.9238,11111222 
TABS,ioos:station:wmo:42049:1,2010-12-02T15:00:00Z,28.3507,-96.0058,2.0,31.9117,11111222 
TABS,ioos:station:wmo:42049:1,2010-12-02T15:30:00Z,28.3507,-96.0058,2.0,31.8871,11111222 
TABS,ioos:station:wmo:42049:1,2010-12-02T16:00:00Z,28.3507,-96.0058,2.0,31.8724,11111222 
TABS,ioos:station:wmo:42049:1,2010-12-02T16:30:00Z,28.3507,-96.0058,2.0,31.8455,11111222 
TABS,ioos:station:wmo:42049:1,2010-12-02T17:00:00Z,28.3507,-96.0058,2.0,31.8339,11111222 
TABS,ioos:station:wmo:42049:1,2010-12-02T17:30:00Z,28.3507,-96.0058,2.0,31.8097,11111222 
TABS,ioos:station:wmo:42049:1,2010-12-02T18:00:00Z,28.3507,-96.0058,2.0,31.7921,11111222 
TABS,ioos:station:wmo:42049:1,2010-12-02T18:30:00Z,28.3507,-96.0058,2.0,31.7876,11111222 
TABS,ioos:station:wmo:42049:1,2010-12-02T19:00:00Z,28.3507,-96.0058,2.0,31.7859,11111222 
TABS,ioos:station:wmo:42049:1,2010-12-02T19:30:00Z,28.3507,-96.0058,2.0,31.7726,11111222 
TABS,ioos:station:wmo:42049:1,2010-12-02T20:00:00Z,28.3507,-96.0058,2.0,31.758,11111222 
TABS,ioos:station:wmo:42049:1,2010-12-02T20:30:00Z,28.3507,-96.0058,2.0,31.7344,11111222 
TABS,ioos:station:wmo:42049:1,2010-12-02T21:00:00Z,28.3507,-96.0058,2.0,31.7204,11111222 
TABS,ioos:station:wmo:42049:1,2010-12-02T21:30:00Z,28.3507,-96.0058,2.0,31.6945,11111222 
TABS,ioos:station:wmo:42049:1,2010-12-02T22:00:00Z,28.3507,-96.0058,2.0,31.6815,11111222 
TABS,ioos:station:wmo:42049:1,2010-12-02T22:30:00Z,28.3507,-96.0058,2.0,31.6735,11111222 
TABS,ioos:station:wmo:42049:1,2010-12-02T23:00:00Z,28.3507,-96.0058,2.0,31.6641,11111222 
TABS,ioos:station:wmo:42049:1,2010-12-02T23:30:00Z,28.3507,-96.0058,2.0,31.6332,11111222 
TABS,ioos:station:wmo:42049:1,2010-12-03T00:00:00Z,28.3507,-96.0058,2.0,31.6067,11111222 
TABS,ioos:station:wmo:42049:1,2010-12-03T00:30:00Z,28.3507,-96.0058,2.0,31.569,11111222 
TABS,ioos:station:wmo:42049:1,2010-12-03T01:00:00Z,28.3507,-96.0058,2.0,31.5395,11111222 
TABS,ioos:station:wmo:42049:1,2010-12-03T01:30:00Z,28.3507,-96.0058,2.0,31.519,11111222 
TABS,ioos:station:wmo:42049:1,2010-12-03T02:00:00Z,28.3507,-96.0058,2.0,31.4993,11111222 
TABS,ioos:station:wmo:42049:1,2010-12-03T02:30:00Z,28.3507,-96.0058,2.0,31.4852,11111222 
TABS,ioos:station:wmo:42049:1,2010-12-03T03:00:00Z,28.3507,-96.0058,2.0,31.4657,11111222 
TABS,ioos:station:wmo:42049:1,2010-12-03T03:30:00Z,28.3507,-96.0058,2.0,31.4615,11111222 
TABS,ioos:station:wmo:42049:1,2010-12-03T04:00:00Z,28.3507,-96.0058,2.0,31.4665,11111222 
TABS,ioos:station:wmo:42049:1,2010-12-03T04:30:00Z,28.3507,-96.0058,2.0,31.4627,11111222 
TABS,ioos:station:wmo:42049:1,2010-12-03T05:00:00Z,28.3507,-96.0058,2.0,31.4297,11111222 
TABS,ioos:station:wmo:42049:1,2010-12-03T05:30:00Z,28.3507,-96.0058,2.0,31.4145,11111222 
TABS,ioos:station:wmo:42049:1,2010-12-03T06:00:00Z,28.3507,-96.0058,2.0,31.4115,11111222 
TABS,ioos:station:wmo:42049:1,2010-12-03T06:30:00Z,28.3507,-96.0058,2.0,31.4013,11111222 
TABS,ioos:station:wmo:42049:1,2010-12-03T07:00:00Z,28.3507,-96.0058,2.0,31.3764,11111222 
TABS,ioos:station:wmo:42049:1,2010-12-03T07:30:00Z,28.3507,-96.0058,2.0,31.3674,11111222 
TABS,ioos:station:wmo:42049:1,2010-12-03T08:00:00Z,28.3507,-96.0058,2.0,31.3508,11111222 
TABS,ioos:station:wmo:42049:1,2010-12-03T08:30:00Z,28.3507,-96.0058,2.0,31.343,11111222 
TABS,ioos:station:wmo:42049:1,2010-12-03T09:00:00Z,28.3507,-96.0058,2.0,31.3379,11111222 
TABS,ioos:station:wmo:42049:1,2010-12-03T09:30:00Z,28.3507,-96.0058,2.0,31.346,11111222 
TABS,ioos:station:wmo:42049:1,2010-12-03T10:00:00Z,28.3507,-96.0058,2.0,31.3497,11111222 
TABS,ioos:station:wmo:42049:1,2010-12-03T10:30:00Z,28.3507,-96.0058,2.0,31.3507,11111222 
TABS,ioos:station:wmo:42049:1,2010-12-03T11:00:00Z,28.3507,-96.0058,2.0,31.344,11111222 
TABS,ioos:station:wmo:42049:1,2010-12-03T11:30:00Z,28.3507,-96.0058,2.0,31.337,11111222 
TABS,ioos:station:wmo:42049:1,2010-12-03T12:00:00Z,28.3507,-96.0058,2.0,31.3468,11111222 
TABS,ioos:station:wmo:42049:1,2010-12-03T12:30:00Z,28.3507,-96.0058,2.0,31.3308,11111222 
TABS,ioos:station:wmo:42049:1,2010-12-03T13:00:00Z,28.3507,-96.0058,2.0,31.3057,11111222 
TABS,ioos:station:wmo:42049:1,2010-12-03T13:30:00Z,28.3507,-96.0058,2.0,31.4327,11111222 
TABS,ioos:station:wmo:42049:1,2010-12-03T14:00:00Z,28.3507,-96.0058,2.0,31.3372,11111222 
TABS,ioos:station:wmo:42049:1,2010-12-03T14:30:00Z,28.3507,-96.0058,2.0,31.4958,11111222 
TABS,ioos:station:wmo:42049:1,2010-12-03T15:00:00Z,28.3507,-96.0058,2.0,31.3599,11111222 
TABS,ioos:station:wmo:42049:1,2010-12-03T15:30:00Z,28.3507,-96.0058,2.0,31.4284,11111222 
TABS,ioos:station:wmo:42049:1,2010-12-03T16:00:00Z,28.3507,-96.0058,2.0,31.3382,11111222 
TABS,ioos:station:wmo:42049:1,2010-12-03T16:30:00Z,28.3507,-96.0058,2.0,31.4039,11111222 
TABS,ioos:station:wmo:42049:1,2010-12-03T17:00:00Z,28.3507,-96.0058,2.0,31.4342,11111222 
TABS,ioos:station:wmo:42049:1,2010-12-03T17:30:00Z,28.3507,-96.0058,2.0,31.5245,11111222 
TABS,ioos:station:wmo:42049:1,2010-12-03T18:00:00Z,28.3507,-96.0058,2.0,31.4503,11111222 
TABS,ioos:station:wmo:42049:1,2010-12-03T18:30:00Z,28.3507,-96.0058,2.0,31.5283,11111222 
TABS,ioos:station:wmo:42049:1,2010-12-03T19:00:00Z,28.3507,-96.0058,2.0,31.47,11111222 
TABS,ioos:station:wmo:42049:1,2010-12-03T19:30:00Z,28.3507,-96.0058,2.0,31.4193,11111222 
TABS,ioos:station:wmo:42049:1,2010-12-03T20:00:00Z,28.3507,-96.0058,2.0,31.4287,11111222 
TABS,ioos:station:wmo:42049:1,2010-12-03T20:30:00Z,28.3507,-96.0058,2.0,31.4268,11111222 
TABS,ioos:station:wmo:42049:1,2010-12-03T21:00:00Z,28.3507,-96.0058,2.0,31.4376,11111222 
TABS,ioos:station:wmo:42049:1,2010-12-03T21:30:00Z,28.3507,-96.0058,2.0,31.4501,11111222 
TABS,ioos:station:wmo:42049:1,2010-12-03T22:00:00Z,28.3507,-96.0058,2.0,31.4604,11111222 
TABS,ioos:station:wmo:42049:1,2010-12-03T22:30:00Z,28.3507,-96.0058,2.0,31.4646,11111222 
TABS,ioos:station:wmo:42049:1,2010-12-03T23:00:00Z,28.3507,-96.0058,2.0,31.4664,11111222 
TABS,ioos:station:wmo:42049:1,2010-12-03T23:30:00Z,28.3507,-96.0058,2.0,31.465,11111222 
TABS,ioos:station:wmo:42049:1,2010-12-04T00:00:00Z,28.3507,-96.0058,2.0,31.4675,11111222 
TABS,ioos:station:wmo:42049:1,2010-12-04T02:30:00Z,28.3507,-96.0058,2.0,31.4419,11111222 
TABS,ioos:station:wmo:42049:1,2010-12-04T03:00:00Z,28.3507,-96.0058,2.0,31.439,11111222 
TABS,ioos:station:wmo:42049:1,2010-12-04T03:30:00Z,28.3507,-96.0058,2.0,31.4373,11111222 
TABS,ioos:station:wmo:42049:1,2010-12-04T04:00:00Z,28.3507,-96.0058,2.0,31.4319,11111222 
TABS,ioos:station:wmo:42049:1,2010-12-04T04:30:00Z,28.3507,-96.0058,2.0,31.4342,11111222 
TABS,ioos:station:wmo:42049:1,2010-12-04T05:00:00Z,28.3507,-96.0058,2.0,31.4338,11111222 
TABS,ioos:station:wmo:42049:1,2010-12-04T05:30:00Z,28.3507,-96.0058,2.0,31.4566,11111222 
TABS,ioos:station:wmo:42049:1,2010-12-04T06:00:00Z,28.3507,-96.0058,2.0,31.4949,11111222 
TABS,ioos:station:wmo:42049:1,2010-12-04T06:30:00Z,28.3507,-96.0058,2.0,31.5309,11111222 
TABS,ioos:station:wmo:42049:1,2010-12-04T07:00:00Z,28.3507,-96.0058,2.0,31.5739,11111222 
TABS,ioos:station:wmo:42049:1,2010-12-04T07:30:00Z,28.3507,-96.0058,2.0,31.5554,11111222 
TABS,ioos:station:wmo:42049:1,2010-12-04T08:00:00Z,28.3507,-96.0058,2.0,31.3439,11111222 
TABS,ioos:station:wmo:42049:1,2010-12-04T08:30:00Z,28.3507,-96.0058,2.0,31.2712,11111222 
TABS,ioos:station:wmo:42049:1,2010-12-04T09:00:00Z,28.3507,-96.0058,2.0,31.0066,11111222 
TABS,ioos:station:wmo:42049:1,2010-12-04T09:30:00Z,28.3507,-96.0058,2.0,30.8249,11111222 
TABS,ioos:station:wmo:42049:1,2010-12-04T10:00:00Z,28.3507,-96.0058,2.0,30.8634,11111222 
TABS,ioos:station:wmo:42049:1,2010-12-04T10:30:00Z,28.3507,-96.0058,2.0,30.955,11111222 
TABS,ioos:station:wmo:42049:1,2010-12-04T11:00:00Z,28.3507,-96.0058,2.0,30.9514,11111222 
TABS,ioos:station:wmo:42049:1,2010-12-04T11:30:00Z,28.3507,-96.0058,2.0,30.9596,11111222 
TABS,ioos:station:wmo:42049:1,2010-12-04T12:00:00Z,28.3507,-96.0058,2.0,31.0133,11111222 
TABS,ioos:station:wmo:42049:1,2010-12-04T12:30:00Z,28.3507,-96.0058,2.0,31.0377,11111222 
TABS,ioos:station:wmo:42049:1,2010-12-04T13:00:00Z,28.3507,-96.0058,2.0,31.064,11111222 
TABS,ioos:station:wmo:42049:1,2010-12-04T13:30:00Z,28.3507,-96.0058,2.0,31.0588,11111222 
TABS,ioos:station:wmo:42049:1,2010-12-04T14:00:00Z,28.3507,-96.0058,2.0,31.0494,11111222 
TABS,ioos:station:wmo:42049:1,2010-12-04T14:30:00Z,28.3507,-96.0058,2.0,31.055,11111222 
TABS,ioos:station:wmo:42049:1,2010-12-04T15:00:00Z,28.3507,-96.0058,2.0,31.0589,11111222 
TABS,ioos:station:wmo:42049:1,2010-12-04T15:30:00Z,28.3507,-96.0058,2.0,31.0589,11111222 
TABS,ioos:station:wmo:42049:1,2010-12-04T16:00:00Z,28.3507,-96.0058,2.0,31.0923,11111222 
TABS,ioos:station:wmo:42049:1,2010-12-04T16:30:00Z,28.3507,-96.0058,2.0,31.1373,11111222 
TABS,ioos:station:wmo:42049:1,2010-12-04T17:00:00Z,28.3507,-96.0058,2.0,31.1925,11111222 
TABS,ioos:station:wmo:42049:1,2010-12-04T17:30:00Z,28.3507,-96.0058,2.0,31.2113,11111222 
TABS,ioos:station:wmo:42049:1,2010-12-04T18:00:00Z,28.3507,-96.0058,2.0,31.2554,11111222 
TABS,ioos:station:wmo:42049:1,2010-12-04T18:30:00Z,28.3507,-96.0058,2.0,31.3084,11111222 
TABS,ioos:station:wmo:42049:1,2010-12-04T19:00:00Z,28.3507,-96.0058,2.0,31.3567,11111222 
TABS,ioos:station:wmo:42049:1,2010-12-04T19:30:00Z,28.3507,-96.0058,2.0,31.3929,11111222 
TABS,ioos:station:wmo:42049:1,2010-12-04T20:00:00Z,28.3507,-96.0058,2.0,31.4469,11111222 
TABS,ioos:station:wmo:42049:1,2010-12-04T20:30:00Z,28.3507,-96.0058,2.0,31.5189,11111222 
TABS,ioos:station:wmo:42049:1,2010-12-04T21:00:00Z,28.3507,-96.0058,2.0,31.6303,11111222 
TABS,ioos:station:wmo:42049:1,2010-12-04T21:30:00Z,28.3507,-96.0058,2.0,32.0729,11111222 
TABS,ioos:station:wmo:42049:1,2010-12-04T22:00:00Z,28.3507,-96.0058,2.0,32.0644,11111222 
TABS,ioos:station:wmo:42049:1,2010-12-04T22:30:00Z,28.3507,-96.0058,2.0,32.0319,11111222 
TABS,ioos:station:wmo:42049:1,2010-12-04T23:00:00Z,28.3507,-96.0058,2.0,32.0101,11111222 
TABS,ioos:station:wmo:42049:1,2010-12-04T23:30:00Z,28.3507,-96.0058,2.0,32.0074,11111222 
TABS,ioos:station:wmo:42049:1,2010-12-05T00:00:00Z,28.3507,-96.0058,2.0,31.983,11111222 
TABS,ioos:station:wmo:42049:1,2010-12-05T00:30:00Z,28.3507,-96.0058,2.0,31.9849,11111222 
TABS,ioos:station:wmo:42049:1,2010-12-05T01:00:00Z,28.3507,-96.0058,2.0,32.0242,11111222 
TABS,ioos:station:wmo:42049:1,2010-12-05T01:30:00Z,28.3507,-96.0058,2.0,32.0713,11111222 
TABS,ioos:station:wmo:42049:1,2010-12-05T02:00:00Z,28.3507,-96.0058,2.0,32.084,11111222 
TABS,ioos:station:wmo:42049:1,2010-12-05T02:30:00Z,28.3507,-96.0058,2.0,32.2123,11111222 
TABS,ioos:station:wmo:42049:1,2010-12-05T03:00:00Z,28.3507,-96.0058,2.0,32.3589,11111222 
TABS,ioos:station:wmo:42049:1,2010-12-05T03:30:00Z,28.3507,-96.0058,2.0,32.3742,11111222 
TABS,ioos:station:wmo:42049:1,2010-12-05T04:00:00Z,28.3507,-96.0058,2.0,32.3716,11111222 
TABS,ioos:station:wmo:42049:1,2010-12-05T04:30:00Z,28.3507,-96.0058,2.0,32.4289,11111222 
TABS,ioos:station:wmo:42049:1,2010-12-05T05:00:00Z,28.3507,-96.0058,2.0,32.493,11111222 
TABS,ioos:station:wmo:42049:1,2010-12-05T05:30:00Z,28.3507,-96.0058,2.0,32.5219,11111222 
TABS,ioos:station:wmo:42049:1,2010-12-05T06:00:00Z,28.3507,-96.0058,2.0,32.5611,11111222 
TABS,ioos:station:wmo:42049:1,2010-12-05T06:30:00Z,28.3507,-96.0058,2.0,32.595,11111222 
TABS,ioos:station:wmo:42049:1,2010-12-05T07:00:00Z,28.3507,-96.0058,2.0,32.5965,11111222 
TABS,ioos:station:wmo:42049:1,2010-12-05T07:30:00Z,28.3507,-96.0058,2.0,32.6719,11111222 
TABS,ioos:station:wmo:42049:1,2010-12-05T08:00:00Z,28.3507,-96.0058,2.0,32.7911,11111222 
TABS,ioos:station:wmo:42049:1,2010-12-05T08:30:00Z,28.3507,-96.0058,2.0,32.7855,11111222 
TABS,ioos:station:wmo:42049:1,2010-12-05T09:00:00Z,28.3507,-96.0058,2.0,32.7956,11111222 
TABS,ioos:station:wmo:42049:1,2010-12-05T09:30:00Z,28.3507,-96.0058,2.0,32.7959,11111222 
TABS,ioos:station:wmo:42049:1,2010-12-05T10:00:00Z,28.3507,-96.0058,2.0,32.8115,11111222 
TABS,ioos:station:wmo:42049:1,2010-12-05T10:30:00Z,28.3507,-96.0058,2.0,32.7618,11111222 
TABS,ioos:station:wmo:42049:1,2010-12-05T11:00:00Z,28.3507,-96.0058,2.0,32.7149,11111222 
TABS,ioos:station:wmo:42049:1,2010-12-05T11:30:00Z,28.3507,-96.0058,2.0,32.6728,11111222 
TABS,ioos:station:wmo:42049:1,2010-12-05T12:00:00Z,28.3507,-96.0058,2.0,32.6524,11111222 
TABS,ioos:station:wmo:42049:1,2010-12-05T12:30:00Z,28.3507,-96.0058,2.0,32.0187,11111222 
TABS,ioos:station:wmo:42049:1,2010-12-05T13:00:00Z,28.3507,-96.0058,2.0,31.9977,11111222 
TABS,ioos:station:wmo:42049:1,2010-12-05T13:30:00Z,28.3507,-96.0058,2.0,31.8868,11111222 
TABS,ioos:station:wmo:42049:1,2010-12-05T14:00:00Z,28.3507,-96.0058,2.0,31.9437,11111222 
TABS,ioos:station:wmo:42049:1,2010-12-05T14:30:00Z,28.3507,-96.0058,2.0,31.9834,11111222 
TABS,ioos:station:wmo:42049:1,2010-12-05T15:00:00Z,28.3507,-96.0058,2.0,31.9304,11111222 
TABS,ioos:station:wmo:42049:1,2010-12-05T15:30:00Z,28.3507,-96.0058,2.0,31.7966,11111222 
TABS,ioos:station:wmo:42049:1,2010-12-05T16:00:00Z,28.3507,-96.0058,2.0,31.7015,11111222 
TABS,ioos:station:wmo:42049:1,2010-12-05T16:30:00Z,28.3507,-96.0058,2.0,31.6748,11111222 
TABS,ioos:station:wmo:42049:1,2010-12-05T17:00:00Z,28.3507,-96.0058,2.0,31.7748,11111222 
TABS,ioos:station:wmo:42049:1,2010-12-05T17:30:00Z,28.3507,-96.0058,2.0,31.7665,11111222 
TABS,ioos:station:wmo:42049:1,2010-12-05T18:00:00Z,28.3507,-96.0058,2.0,31.7206,11111222 
TABS,ioos:station:wmo:42049:1,2010-12-05T18:30:00Z,28.3507,-96.0058,2.0,31.6711,11111222 
TABS,ioos:station:wmo:42049:1,2010-12-05T19:00:00Z,28.3507,-96.0058,2.0,31.6549,11111222 
TABS,ioos:station:wmo:42049:1,2010-12-05T19:30:00Z,28.3507,-96.0058,2.0,31.5939,11111222 
TABS,ioos:station:wmo:42049:1,2010-12-05T20:00:00Z,28.3507,-96.0058,2.0,31.4537,11111222 
TABS,ioos:station:wmo:42049:1,2010-12-05T20:30:00Z,28.3507,-96.0058,2.0,31.4771,11111222 
TABS,ioos:station:wmo:42049:1,2010-12-05T21:00:00Z,28.3507,-96.0058,2.0,31.3166,11111222 
TABS,ioos:station:wmo:42049:1,2010-12-05T21:30:00Z,28.3507,-96.0058,2.0,31.2779,11111222 
TABS,ioos:station:wmo:42049:1,2010-12-05T22:00:00Z,28.3507,-96.0058,2.0,31.3056,11111222 
TABS,ioos:station:wmo:42049:1,2010-12-05T22:30:00Z,28.3507,-96.0058,2.0,31.3713,11111222 
TABS,ioos:station:wmo:42049:1,2010-12-05T23:00:00Z,28.3507,-96.0058,2.0,31.4062,11111222 
TABS,ioos:station:wmo:42049:1,2010-12-05T23:30:00Z,28.3507,-96.0058,2.0,31.4176,11111222 
TABS,ioos:station:wmo:42049:1,2010-12-06T00:00:00Z,28.3507,-96.0058,2.0,31.4343,11111222 
TABS,ioos:station:wmo:42049:1,2010-12-06T00:30:00Z,28.3507,-96.0058,2.0,31.4508,11111222 
TABS,ioos:station:wmo:42049:1,2010-12-06T01:00:00Z,28.3507,-96.0058,2.0,31.4628,11111222 
TABS,ioos:station:wmo:42049:1,2010-12-06T01:30:00Z,28.3507,-96.0058,2.0,31.4907,11111222 
TABS,ioos:station:wmo:42049:1,2010-12-06T02:00:00Z,28.3507,-96.0058,2.0,31.4956,11111222 
TABS,ioos:station:wmo:42049:1,2010-12-06T02:30:00Z,28.3507,-96.0058,2.0,31.5302,11111222 
TABS,ioos:station:wmo:42049:1,2010-12-06T03:00:00Z,28.3507,-96.0058,2.0,31.5523,11111222 
TABS,ioos:station:wmo:42049:1,2010-12-06T03:30:00Z,28.3507,-96.0058,2.0,31.4818,11111222 
TABS,ioos:station:wmo:42049:1,2010-12-06T04:00:00Z,28.3507,-96.0058,2.0,31.5025,11111222 
TABS,ioos:station:wmo:42049:1,2010-12-06T04:30:00Z,28.3507,-96.0058,2.0,31.4618,11111222 
TABS,ioos:station:wmo:42049:1,2010-12-06T05:00:00Z,28.3507,-96.0058,2.0,31.4574,11111222 
TABS,ioos:station:wmo:42049:1,2010-12-06T05:30:00Z,28.3507,-96.0058,2.0,31.503,11111222 
TABS,ioos:station:wmo:42049:1,2010-12-06T06:00:00Z,28.3507,-96.0058,2.0,31.5451,11111222 
TABS,ioos:station:wmo:42049:1,2010-12-06T06:30:00Z,28.3507,-96.0058,2.0,31.5604,11111222 
TABS,ioos:station:wmo:42049:1,2010-12-06T07:00:00Z,28.3507,-96.0058,2.0,31.6277,11111222 
TABS,ioos:station:wmo:42049:1,2010-12-06T07:30:00Z,28.3507,-96.0058,2.0,31.7034,11111222 
TABS,ioos:station:wmo:42049:1,2010-12-06T08:00:00Z,28.3507,-96.0058,2.0,31.7552,11111222 
TABS,ioos:station:wmo:42049:1,2010-12-06T08:30:00Z,28.3507,-96.0058,2.0,31.7869,11111222 
TABS,ioos:station:wmo:42049:1,2010-12-06T09:00:00Z,28.3507,-96.0058,2.0,31.7813,11111222 
TABS,ioos:station:wmo:42049:1,2010-12-06T09:30:00Z,28.3507,-96.0058,2.0,31.8154,11111222 
TABS,ioos:station:wmo:42049:1,2010-12-06T10:00:00Z,28.3507,-96.0058,2.0,31.8336,11111222 
TABS,ioos:station:wmo:42049:1,2010-12-06T10:30:00Z,28.3507,-96.0058,2.0,31.8619,11111222 
TABS,ioos:station:wmo:42049:1,2010-12-06T11:00:00Z,28.3507,-96.0058,2.0,31.8858,11111222 
TABS,ioos:station:wmo:42049:1,2010-12-06T11:30:00Z,28.3507,-96.0058,2.0,31.9265,11111222 
TABS,ioos:station:wmo:42049:1,2010-12-06T12:00:00Z,28.3507,-96.0058,2.0,31.926,11111222 
TABS,ioos:station:wmo:42049:1,2010-12-06T12:30:00Z,28.3507,-96.0058,2.0,31.8537,11111222 
TABS,ioos:station:wmo:42049:1,2010-12-06T13:00:00Z,28.3507,-96.0058,2.0,31.8312,11111222 
TABS,ioos:station:wmo:42049:1,2010-12-06T13:30:00Z,28.3507,-96.0058,2.0,31.8301,11111222 
TABS,ioos:station:wmo:42049:1,2010-12-06T14:00:00Z,28.3507,-96.0058,2.0,31.8626,11111222 
TABS,ioos:station:wmo:42049:1,2010-12-06T14:30:00Z,28.3507,-96.0058,2.0,31.8466,11111222 